Powrót do katalogu

STARLINK-32105

AktywnyŁącznośćVLEO
NORAD 59689·PAYLOAD·🇺🇸 United States

Wystrzelony May 8, 2024 z Cape Canaveral Space Force Station

Loading…

Następne Przeloty (najbliższe 24 godziny)

TLE

ŚwieżeSource: CelesTrak SupGP

Epoka: Sep 14, 2026, 21:01 UTC

1 59689C 24086H   26257.87618056  .00043271  00000+0  15677-2 0  2571
2 59689  43.0001  71.2088 0001291 273.6340 274.5958 15.27549130    19

Śledź STARLINK-32105 w czasie rzeczywistym z AllMySat

Download on the App Store